Palma de Mallorca, Spain

1:09 PM CEST on June 27, 2017 (GMT +0200)
Palma De Mallorca

Weather History for LEPA - February, 2012

Change the Weather History Date:

Thursday, February 16, 2012

  Actual Average Record
Temperature  
Mean Temperature 46 °F -  
Max Temperature 59 °F 60 °F 69 °F (2007)
Min Temperature 34 °F 40 °F 30 °F (2008)
Degree Days  
Heating Degree Days 18    
Moisture  
Dew Point 40 °F    
Average Humidity 77    
Maximum Humidity 93    
Minimum Humidity 45    
Precipitation  
Precipitation 0.00 in 0.05 in - ()
Sea Level Pressure  
Sea Level Pressure 30.16 in    
Wind  
Wind Speed 2 mph ()    
Max Wind Speed 8 mph    
Max Gust Speed -    
Visibility 7.0 miles    
Events      
Averages and records for this station are not official NWS values.
T = Trace of Precipitation, MM = Missing Value Source: Averaged Metar Reports

Daily Weather History Graph

Daily Weather History Graph

Search for Another Location

Airport or City:

Trip Planner

Search our weather history database for the weather conditions in past years. The results will help you decide how hot, cold, wet, or windy it might be!

Date:

Astronomy

Feb. 16, 2012 Rise Set
Actual Time 7:40 AM CET 6:25 PM CET
Civil Twilight 7:13 AM CET 6:53 PM CET
Nautical Twilight 6:41 AM CET 7:25 PM CET
Astronomical Twilight 6:10 AM CET 7:56 PM CET
Moon 3:20 AM CET (2/16) 1:03 PM CET (2/16)
Length of Visible Light 11h 40m
Length of Day
10h 45m
Waning Crescent, 31% of the Moon is Illuminated
Feb 16
Waning Crescent
Feb 21
New
Mar 1
First Quarter
Mar 8
Full
Mar 15
Last Quarter

Hourly Weather History & Observations

Time (CET) Temp. Windchill Dew Point Humidity Pressure Visibility Wind Dir Wind Speed Gust Speed Precip Events Conditions
12:00 AM 37.4 °F - 33.8 °F 87% 30.15 in - ENE 2.3 mph - N/A   Clear
12:30 AM 35.6 °F - 33.8 °F 93% 30.15 in - Variable 2.3 mph - N/A   Clear
1:00 AM 35 °F - 32 °F 86% 30.17 in 12 mi Calm Calm - -  
1:00 AM 35.6 °F - 32.0 °F 87% 30.15 in - Calm Calm - N/A   Clear
1:30 AM 35.6 °F - 33.8 °F 93% 30.15 in - Variable 2.3 mph - N/A   Clear
2:00 AM 35.6 °F - 33.8 °F 93% 30.15 in - North 1.2 mph - N/A   Clear
2:30 AM 37.4 °F - 33.8 °F 87% 30.15 in - East 1.2 mph - N/A   Clear
3:00 AM 37.4 °F - 35.6 °F 93% 30.15 in 6.2 mi Calm Calm - N/A   Partly Cloudy
3:30 AM 37.4 °F - 35.6 °F 93% 30.15 in 6.2 mi Calm Calm - N/A   Partly Cloudy
4:00 AM 37.4 °F 32.8 °F 35.6 °F 93% 30.15 in 6.2 mi ENE 5.8 mph - N/A   Partly Cloudy
4:30 AM 41.0 °F - 37.4 °F 87% 30.15 in 6.2 mi Calm Calm - N/A   Partly Cloudy
5:00 AM 39.2 °F - 37.4 °F 93% 30.15 in 6.2 mi Variable 1.2 mph - N/A   Partly Cloudy
5:30 AM 41.0 °F - 37.4 °F 87% 30.15 in 6.2 mi NW 2.3 mph - N/A   Partly Cloudy
6:00 AM 42.8 °F 41.1 °F 39.2 °F 87% 30.15 in 6.2 mi NNW 3.5 mph - N/A   Scattered Clouds
6:30 AM 42.8 °F - 41.0 °F 93% 30.15 in 6.2 mi Calm Calm - N/A   Scattered Clouds
7:00 AM 43 °F - 40 °F 86% 30.14 in 12 mi SW 1.2 mph - -   Scattered Clouds
7:00 AM 42.8 °F - 41.0 °F 93% 30.12 in 6.2 mi Variable 1.2 mph - N/A   Partly Cloudy
7:30 AM 41.0 °F - 37.4 °F 87% 30.15 in 6.2 mi Variable 1.2 mph - N/A   Partly Cloudy
8:00 AM 37.4 °F - 35.6 °F 93% 30.15 in - Calm Calm - N/A   Clear
8:30 AM 39.2 °F - 37.4 °F 93% 30.15 in 6.2 mi Calm Calm - N/A   Partly Cloudy
9:00 AM 42.8 °F - 41.0 °F 93% 30.15 in 6.2 mi Calm Calm - N/A   Partly Cloudy
9:30 AM 46.4 °F - 44.6 °F 93% 30.15 in 6.2 mi Calm Calm - N/A   Partly Cloudy
10:00 AM 51.8 °F - 46.4 °F 82% 30.15 in 6.2 mi Calm Calm - N/A   Partly Cloudy
10:30 AM 53.6 °F - 44.6 °F 72% 30.15 in 6.2 mi Calm Calm - N/A   Partly Cloudy
11:00 AM 55.4 °F - 44.6 °F 67% 30.15 in 6.2 mi Variable 2.3 mph - N/A   Partly Cloudy
11:30 AM 55.4 °F - 44.6 °F 67% 30.18 in 6.2 mi SW 3.5 mph - N/A   Partly Cloudy
12:00 PM 55.4 °F - 42.8 °F 63% 30.18 in 6.2 mi SSW 4.6 mph - N/A   Partly Cloudy
12:30 PM 55.4 °F - 44.6 °F 67% 30.15 in 6.2 mi SW 6.9 mph - N/A   Scattered Clouds
1:00 PM 57 °F - 45 °F 55% 30.17 in 19 mi SSW 5.8 mph - -   Partly Cloudy
1:00 PM 57.2 °F - 44.6 °F 63% 30.15 in 6.2 mi SSW 3.5 mph - N/A   Scattered Clouds
1:30 PM 57.2 °F - 46.4 °F 67% 30.15 in 6.2 mi SW 6.9 mph - N/A   Scattered Clouds
2:00 PM 57.2 °F - 44.6 °F 63% 30.15 in 6.2 mi SW 5.8 mph - N/A   Scattered Clouds
2:30 PM 57.2 °F - 44.6 °F 63% 30.15 in 6.2 mi SW 5.8 mph - N/A   Scattered Clouds
3:00 PM 59.0 °F - 42.8 °F 55% 30.12 in 6.2 mi SSW 5.8 mph - N/A   Scattered Clouds
3:30 PM 59.0 °F - 41.0 °F 51% 30.12 in 6.2 mi SSW 3.5 mph - N/A   Scattered Clouds
4:00 PM 59.0 °F - 39.2 °F 48% 30.12 in 6.2 mi SSW 8.1 mph - N/A   Partly Cloudy
4:30 PM 59.0 °F - 37.4 °F 45% 30.12 in 6.2 mi SW 6.9 mph - N/A   Partly Cloudy
5:00 PM 57.2 °F - 41.0 °F 55% 30.12 in 6.2 mi SSW 8.1 mph - N/A   Partly Cloudy
5:30 PM 57.2 °F - 41.0 °F 55% 30.12 in 6.2 mi SW 4.6 mph - N/A   Partly Cloudy
6:00 PM 57.2 °F - 41.0 °F 55% 30.15 in 6.2 mi SSW 3.5 mph - N/A   Partly Cloudy
6:30 PM 55.4 °F - 41.0 °F 58% 30.15 in 6.2 mi South 1.2 mph - N/A   Partly Cloudy
7:00 PM 52 °F - 43 °F 62% 30.17 in 17 mi NNW 1.2 mph - -   Scattered Clouds
7:00 PM 51.8 °F - 42.8 °F 71% 30.15 in 6.2 mi Calm Calm - N/A   Partly Cloudy
7:30 PM 50.0 °F - 42.8 °F 76% 30.18 in 6.2 mi South 2.3 mph - N/A   Partly Cloudy
8:00 PM 48.2 °F - 41.0 °F 76% 30.18 in 6.2 mi Calm Calm - N/A   Partly Cloudy
8:30 PM 46.4 °F - 41.0 °F 81% 30.18 in 6.2 mi Calm Calm - N/A   Partly Cloudy
9:00 PM 44.6 °F - 39.2 °F 81% 30.18 in 6.2 mi NNE 1.2 mph - N/A   Partly Cloudy
9:30 PM 42.8 °F - 39.2 °F 87% 30.21 in 6.2 mi NE 1.2 mph - N/A   Partly Cloudy
10:00 PM 41.0 °F - 37.4 °F 87% 30.21 in 6.2 mi Calm Calm - N/A   Partly Cloudy
10:30 PM 41.0 °F - 37.4 °F 87% 30.21 in 6.2 mi North 1.2 mph - N/A   Partly Cloudy
11:00 PM 39.2 °F - 37.4 °F 93% 30.21 in 6.2 mi Calm Calm - N/A   Partly Cloudy
11:30 PM 39.2 °F - 35.6 °F 87% 30.21 in 6.2 mi Variable 1.2 mph - N/A   Partly Cloudy